Wind_Speed
15 16 17 17 17 16 17 16 14 12 11 11 11 12 13 13 14 14 15 15 15 16 16 17 18 18 18 18 18 20 21 20 19 18 17 16 15 14 12 10 10 10 10
18 18 19 18 17 16 16 15 14 12 11 11 10 11 12 12 13 15 16 16 16 15 15 16 16 17 19 19 20 22 23 24 22 21 20 19 18 16 15 13 12 11 10
19 19 20 19 17 16 16 15 13 13 12 11 11 11 11 12 14 17 18 18 17 16 15 16 16 17 18 20 21 23 24 25 24 23 22 21 20 19 18 17 16 15 14
19 19 19 18 17 16 15 14 13 13 13 12 12 11 11 11 13 16 19 19 18 17 17 18 18 19 19 20 22 24 25 26 26 26 25 24 23 22 21 20 20 19 18
20 20 19 18 18 17 15 13 12 13 13 12 12 12 13 12 12 15 18 19 20 20 20 20 21 21 22 23 24 25 26 28 28 29 29 27 26 25 25 24 23 23 23
21 20 19 19 18 17 15 13 12 13 13 12 12 13 14 15 14 14 15 18 21 23 23 23 24 25 26 27 27 27 27 29 30 30 30 29 28 29 29 28 28 28 28
20 20 20 19 19 18 16 13 13 14 13 13 13 14 15 16 17 17 17 18 19 21 23 24 25 26 27 28 29 29 28 28 29 29 28 28 30 31 32 32 32 33 33
20 19 20 20 20 20 17 15 14 14 13 13 13 14 15 16 17 19 20 21 22 23 24 25 26 26 27 28 28 28 28 28 29 29 30 30 31 33 34 35 36 37 38
19 18 19 21 21 20 19 16 16 15 13 12 12 12 12 13 14 16 18 20 22 24 26 27 28 28 29 29 29 30 30 31 32 33 34 35 36 37 38 39 40 41 42
19 18 20 22 22 21 20 18 18 16 14 13 13 13 12 13 13 14 15 17 19 21 23 24 26 28 30 30 31 32 32 33 34 35 36 38 39 40 41 42 43 44 44
19 19 20 24 24 23 23 20 19 18 16 16 16 15 15 17 17 17 18 18 19 20 21 22 23 25 28 30 31 32 33 34 35 36 38 39 41 42 43 43 42 42 41
21 21 21 25 26 25 24 22 22 20 19 18 19 19 20 22 23 23 23 23 23 23 24 24 25 26 28 30 31 32 33 35 36 38 39 40 40 40 39 38 37 35 34
22 22 22 25 27 27 26 24 23 22 21 21 22 23 25 26 28 29 29 29 29 28 28 29 29 30 31 33 34 35 36 37 38 38 38 38 38 37 36 35 35 35 35
24 23 23 24 27 28 27 26 24 24 24 23 24 25 27 29 30 32 32 32 32 32 32 33 34 34 35 36 37 38 39 39 38 37 37 36 35 36 36 37 38 39 39
25 25 24 24 26 27 27 28 27 27 27 26 26 27 29 30 32 33 34 33 33 32 32 34 35 36 36 35 35 35 35 35 35 34 34 35 36 37 38 40 41 42 42
25 26 26 26 26 25 25 26 27 28 29 28 28 29 30 30 31 30 30 30 30 31 32 33 35 35 35 34 34 34 34 34 35 36 36 37 38 39 40 41 42 43 44
25 26 27 28 27 25 24 25 26 28 28 28 29 29 29 29 28 27 26 28 29 30 31 33 35 36 35 35 35 35 36 36 37 38 39 40 41 42 44 45 46 47 48
25 26 27 28 27 25 24 24 25 26 27 27 28 28 28 27 26 26 27 29 31 32 34 36 37 37 36 36 36 37 38 39 40 41 42 43 45 46 47 49 50 51 53
25 26 27 26 25 24 23 23 24 24 25 26 27 29 28 27 26 27 30 32 34 35 37 40 40 39 37 37 37 39 39 40 41 43 44 46 48 50 52 54 56 58 60
27 27 27 26 24 23 23 23 23 24 25 27 29 30 28 27 28 31 33 35 37 38 40 42 42 40 39 38 38 39 41 42 44 46 48 50 53 55 58 60 62 64 66
28 28 27 25 24 25 24 23 23 25 27 29 30 30 29 29 31 34 36 38 39 41 42 43 42 42 41 39 39 40 43 46 47 50 53 56 58 61 64 66 68 69 70
28 28 28 26 26 26 25 25 26 27 28 30 29 29 29 31 34 37 39 41 42 43 43 42 40 40 41 42 43 44 46 48 52 55 57 60 63 65 67 69 70 72 73
29 29 29 27 27 27 27 28 28 28 28 28 27 28 31 34 37 39 41 42 43 42 40 39 40 41 43 46 48 51 53 54 55 56 59 62 65 67 68 70 71 73 74
29 30 29 28 28 29 30 30 30 29 29 28 29 31 34 37 39 41 41 42 41 39 39 41 43 45 47 50 54 57 61 63 65 65 63 63 65 67 68 70 72 73 75
29 29 29 28 29 30 31 31 31 30 30 31 33 35 37 39 40 41 41 40 40 41 42 44 47 49 52 55 58 61 64 67 71 74 73 71 68 67 68 70 74 78 81
29 29 29 29 30 31 32 32 31 31 32 34 36 38 39 40 40 40 40 40 42 44 45 47 50 54 57 60 62 64 66 68 70 72 74 75 74 73 73 76 81 86 91
Wind_Direction
275 280 282 287 293 299 302 304 306 306 305 308 310 305 294 279 269 266 263 264 261 255 253 254 254 254 256 257 259 260 263 266 268 269 268 265 263 264 272 281 293 300 298
272 277 282 287 292 296 298 300 303 306 305 304 301 301 295 278 263 259 257 257 257 256 254 253 253 253 253 255 257 259 261 264 267 268 268 268 266 265 269 273 279 287 292
270 276 281 284 286 289 292 295 300 305 301 296 293 290 288 278 262 255 250 249 250 251 251 250 250 251 252 254 257 260 262 264 265 265 265 265 264 264 267 271 275 278 281
265 271 277 278 278 280 283 289 297 300 296 290 289 285 283 278 263 253 248 246 247 249 250 251 253 255 257 259 262 263 262 262 262 263 263 260 260 261 264 268 271 273 275
266 270 273 271 269 271 275 282 289 292 291 289 286 280 276 277 272 257 251 249 249 250 252 255 259 262 265 267 268 267 265 263 261 263 264 263 261 262 264 266 269 272 275
268 271 271 265 261 264 268 274 279 284 288 289 286 278 272 270 273 273 265 259 257 256 258 261 265 268 269 270 270 270 269 267 265 266 267 266 262 261 264 267 271 274 277
268 271 270 260 255 258 262 265 270 276 283 288 287 282 275 270 269 272 274 273 271 270 270 271 273 274 274 274 272 271 271 271 271 270 268 266 264 263 264 267 271 274 276
267 270 266 257 251 252 256 257 260 268 277 285 287 287 283 280 277 276 276 276 276 277 277 276 275 276 277 278 278 276 274 272 271 269 267 265 265 266 267 269 271 273 275
269 268 261 252 247 247 250 250 253 262 269 274 280 286 291 290 287 284 282 280 279 277 276 275 275 275 276 276 277 276 275 273 271 271 271 270 270 270 271 272 273 274 274
268 266 254 245 243 243 244 246 249 256 260 263 271 283 291 296 300 302 299 295 290 285 282 280 278 276 274 273 273 274 274 274 274 274 274 275 275 275 276 276 276 275 275
267 269 255 242 240 240 241 243 246 252 254 257 267 278 287 291 296 301 302 299 296 293 289 286 284 281 279 277 277 277 277 277 278 278 278 278 279 279 280 280 279 277 276
269 273 263 247 242 241 242 243 244 249 253 257 266 276 284 288 292 294 296 297 297 295 293 290 287 285 283 282 281 281 280 280 280 280 280 281 282 282 282 282 281 281 280
264 268 263 252 247 246 247 246 247 251 256 260 267 276 282 287 292 295 296 297 297 295 293 292 290 288 287 286 284 283 283 283 282 283 283 283 283 284 284 284 283 282 280
262 263 260 254 250 251 252 251 251 254 256 261 268 275 281 288 293 295 294 293 293 294 294 293 293 293 293 291 288 286 286 285 285 284 283 283 282 282 281 281 280 279 278
257 261 259 256 253 252 253 253 252 256 262 268 275 281 287 293 295 294 293 292 292 293 293 293 294 295 295 293 291 288 287 285 284 282 281 279 278 278 277 278 279 279 279
252 256 256 256 257 255 253 251 250 254 262 270 277 284 289 293 294 294 294 293 293 293 293 295 296 296 295 293 291 289 287 285 284 283 282 281 280 278 277 276 276 276 276
247 251 254 256 258 257 253 251 251 254 261 269 277 284 290 295 296 296 297 297 296 295 296 297 298 296 293 291 289 286 285 284 283 283 283 283 282 281 280 279 278 278 278
245 248 252 256 258 255 252 254 256 259 265 272 279 288 293 294 295 297 300 301 301 300 301 301 300 297 294 291 288 286 285 284 283 283 283 283 283 283 284 283 283 282 282
244 247 253 257 255 252 253 257 260 263 269 277 285 292 294 294 295 297 299 300 300 300 301 302 300 297 294 291 288 286 285 285 284 284 285 285 285 285 285 285 284 284 283
245 249 255 257 251 246 250 256 261 267 275 282 289 294 295 294 294 295 297 297 297 298 299 299 297 294 292 290 289 288 288 287 287 287 287 287 287 287 286 286 286 286 286
245 250 256 257 246 243 248 255 263 271 278 285 290 292 291 291 292 295 296 296 296 297 297 297 296 294 292 291 290 291 291 291 291 291 291 291 291 291 291 291 290 290 289
245 249 254 255 248 245 248 256 265 272 280 287 290 290 291 292 294 295 296 297 297 297 297 297 296 295 293 292 292 292 292 294 295 295 295 295 294 293 292 292 291 290 288
245 248 253 255 251 248 251 258 266 275 283 289 291 293 294 295 296 296 297 298 299 299 299 298 296 295 295 295 295 296 295 294 293 293 294 294 293 293 292 291 291 290 289
243 247 251 253 251 250 253 259 266 274 282 288 292 294 295 294 294 295 297 298 299 299 299 298 298 298 298 299 300 300 299 299 298 296 294 294 294 294 294 294 294 293 292
241 245 249 252 252 252 254 259 266 273 280 286 290 292 293 293 294 296 298 298 298 299 300 300 300 301 301 300 300 300 300 300 300 300 298 297 297 297 297 297 297 296 296
239 244 248 250 252 253 255 259 265 271 278 284 288 291 292 294 295 296 297 297 297 298 300 300 301 301 301 301 301 301 301 301 300 300 300 300 300 300 300 300 300 300 300
Height
5859 5859 5858 5858 5858 5857 5856 5856 5854 5853 5852 5851 5851 5851 5850 5850 5851 5851 5851 5851 5851 5850 5850 5850 5851 5851 5850 5850 5850 5849 5848 5847 5846 5845 5844 5843 5841 5840 5839 5838 5836 5835 5834
5856 5856 5856 5855 5855 5854 5854 5853 5852 5851 5850 5849 5849 5848 5848 5848 5848 5848 5848 5848 5848 5847 5847 5847 5847 5847 5846 5845 5845 5844 5844 5843 5842 5841 5840 5839 5838 5837 5836 5835 5833 5832 5831
5852 5852 5853 5852 5852 5851 5851 5851 5850 5849 5848 5847 5846 5846 5846 5845 5845 5844 5844 5844 5844 5844 5843 5843 5843 5842 5841 5841 5840 5840 5839 5839 5838 5837 5836 5835 5834 5833 5832 5832 5831 5829 5828
5848 5849 5849 5849 5848 5848 5849 5849 5848 5848 5847 5845 5844 5844 5843 5843 5842 5841 5840 5840 5840 5840 5839 5839 5839 5838 5837 5837 5836 5835 5835 5834 5833 5832 5831 5830 5829 5829 5828 5828 5827 5826 5825
5844 5845 5846 5845 5845 5845 5846 5846 5846 5845 5844 5843 5842 5842 5842 5841 5839 5838 5838 5837 5837 5837 5836 5836 5835 5835 5834 5834 5833 5832 5830 5829 5829 5828 5827 5826 5825 5825 5823 5823 5822 5821 5820
5840 5841 5842 5841 5841 5842 5843 5844 5843 5843 5842 5841 5840 5839 5839 5839 5838 5836 5836 5835 5834 5834 5833 5833 5832 5832 5831 5830 5829 5827 5826 5824 5823 5823 5822 5821 5821 5820 5819 5818 5817 5816 5816
5837 5837 5838 5838 5838 5839 5840 5841 5841 5840 5839 5838 5838 5837 5837 5836 5835 5835 5834 5833 5832 5831 5830 5829 5829 5828 5827 5826 5824 5822 5821 5820 5818 5818 5817 5816 5815 5814 5814 5813 5811 5810 5810
5833 5834 5834 5834 5835 5836 5837 5838 5838 5837 5836 5836 5835 5835 5835 5834 5833 5832 5831 5830 5829 5828 5827 5825 5824 5823 5822 5821 5819 5818 5816 5815 5813 5812 5811 5810 5809 5809 5808 5807 5805 5804 5802
5830 5830 5830 5831 5831 5832 5834 5835 5834 5834 5833 5833 5833 5833 5832 5831 5830 5829 5827 5826 5824 5823 5822 5821 5819 5818 5817 5816 5814 5812 5811 5809 5807 5806 5805 5804 5803 5802 5800 5799 5797 5796 5795
5826 5826 5827 5827 5827 5829 5830 5831 5831 5831 5831 5831 5831 5831 5830 5829 5827 5826 5824 5822 5820 5819 5817 5815 5814 5813 5811 5810 5808 5806 5804 5802 5801 5799 5797 5796 5795 5794 5792 5790 5789 5787 5785
5822 5822 5823 5823 5824 5825 5826 5827 5827 5827 5827 5828 5828 5827 5826 5825 5824 5822 5820 5818 5816 5814 5813 5810 5808 5807 5805 5803 5802 5800 5797 5795 5793 5791 5790 5788 5787 5785 5783 5781 5779 5777 5775
5818 5818 5818 5819 5820 5821 5821 5823 5823 5824 5824 5824 5824 5823 5822 5821 5819 5818 5815 5813 5812 5810 5808 5806 5803 5801 5799 5797 5795 5793 5790 5788 5786 5784 5781 5780 5778 5776 5774 5772 5770 5768 5766
5814 5815 5814 5814 5815 5816 5817 5818 5819 5820 5821 5820 5820 5819 5818 5816 5815 5813 5810 5809 5807 5805 5803 5801 5798 5796 5793 5791 5788 5785 5783 5780 5778 5775 5773 5771 5769 5767 5765 5763 5761 5759 5758
5808 5809 5810 5809 5810 5811 5812 5813 5815 5816 5817 5816 5815 5815 5814 5812 5810 5808 5805 5803 5801 5799 5797 5794 5791 5789 5786 5783 5781 5778 5775 5772 5770 5768 5765 5763 5760 5758 5756 5754 5752 5750 5748
5802 5803 5804 5805 5806 5807 5808 5809 5811 5812 5812 5811 5810 5810 5809 5807 5805 5802 5799 5797 5795 5793 5791 5788 5785 5782 5779 5775 5772 5770 5767 5764 5762 5760 5757 5754 5752 5750 5748 5746 5744 5742 5739
5797 5797 5798 5800 5801 5803 5804 5805 5807 5807 5807 5806 5806 5805 5804 5801 5798 5795 5793 5791 5788 5786 5784 5781 5778 5775 5772 5768 5765 5762 5759 5757 5754 5751 5748 5745 5743 5741 5739 5736 5734 5731 5729
5791 5792 5792 5793 5795 5797 5799 5800 5801 5802 5802 5802 5801 5800 5798 5795 5791 5789 5787 5784 5782 5780 5777 5774 5771 5767 5764 5761 5758 5755 5752 5749 5746 5743 5740 5737 5734 5731 5728 5726 5723 5721 5719
5786 5787 5787 5788 5789 5791 5793 5794 5795 5796 5796 5796 5795 5794 5791 5787 5785 5783 5781 5778 5776 5773 5770 5767 5763 5760 5756 5753 5750 5746 5744 5741 5738 5734 5731 5728 5725 5722 5718 5715 5712 5709 5707
5780 5781 5782 5783 5784 5786 5788 5789 5789 5790 5790 5790 5789 5786 5783 5780 5778 5776 5774 5771 5769 5766 5762 5759 5755 5752 5749 5746 5742 5738 5735 5732 5729 5725 5722 5718 5714 5711 5707 5703 5700 5697 5693
5773 5775 5776 5778 5779 5781 5782 5783 5784 5784 5784 5783 5781 5779 5776 5774 5771 5769 5767 5764 5761 5758 5754 5750 5747 5743 5741 5738 5734 5731 5727 5724 5720 5716 5712 5707 5703 5698 5694 5690 5686 5682 5677
5766 5768 5770 5772 5774 5775 5776 5777 5778 5778 5777 5776 5774 5771 5769 5767 5764 5762 5759 5756 5753 5749 5745 5741 5737 5734 5731 5728 5725 5722 5717 5713 5709 5704 5699 5694 5690 5684 5679 5673 5668 5664 5659
5760 5762 5763 5765 5767 5768 5770 5771 5772 5772 5771 5769 5766 5764 5762 5759 5757 5754 5751 5747 5743 5739 5736 5732 5728 5724 5721 5718 5715 5713 5710 5706 5699 5693 5687 5681 5676 5670 5664 5658 5652 5647 5641
5754 5755 5757 5758 5760 5762 5763 5764 5765 5765 5763 5761 5759 5757 5754 5752 5749 5745 5742 5738 5734 5730 5726 5722 5719 5715 5711 5706 5702 5698 5695 5692 5690 5686 5679 5670 5663 5656 5649 5642 5635 5629 5622
5747 5749 5751 5752 5754 5755 5757 5757 5758 5757 5756 5754 5752 5749 5746 5743 5740 5736 5732 5728 5724 5720 5716 5713 5709 5705 5700 5695 5689 5683 5677 5671 5667 5667 5666 5657 5649 5641 5632 5624 5616 5608 5601
5741 5743 5744 5746 5747 5748 5749 5750 5750 5750 5748 5746 5744 5741 5738 5735 5731 5727 5723 5719 5715 5711 5707 5703 5698 5694 5689 5683 5678 5671 5664 5656 5646 5640 5638 5636 5630 5623 5615 5606 5596 5586 5577
5734 5737 5738 5740 5741 5741 5742 5743 5742 5742 5740 5738 5736 5733 5729 5725 5722 5718 5714 5710 5706 5702 5698 5693 5688 5682 5677 5670 5663 5656 5648 5641 5633 5624 5617 5612 5606 5601 5593 5584 5573 5561 5550